When you browse on this site, cookies collect data to enhance your experience and personalize the content and advertising you see.
Visit our Privacy Policy to learn more. By continuing to use the site, you agree to this use of cookies and data.
  • In France
  • List of Countries
  • For 7 days
  • Water Temperature
  • Satellite Maps
  • Weather Map
  • Weather Widgets
  • user-avatar
    Login

    Hourly Weather Chitole

    Today, 21 July, Sunday

    Time Temperature Precipitation Wind Pressure Humidity
    00:00 +14°C° 0 mm 1 mps 673 mmHg 32%
    01:00 +13°C° 0 mm 1 mps 673 mmHg 35%
    02:00 +13°C° 0 mm 1 mps 673 mmHg 36%
    03:00 +12°C° 0 mm 1 mps 672 mmHg 38%
    04:00 +11°C° 0 mm 1 mps 672 mmHg 40%
    05:00 +12°C° 0 mm 1 mps 673 mmHg 38%
    06:00 +13°C° 0 mm 1 mps 674 mmHg 37%
    07:00 +14°C° 0 mm 2 mps 675 mmHg 34%
    08:00 +18°C° 0 mm 2 mps 675 mmHg 28%
    09:00 +22°C° 0 mm 3 mps 676 mmHg 21%
    10:00 +27°C° 0 mm 3 mps 677 mmHg 15%
    11:00 +29°C° 0 mm 3 mps 676 mmHg 13%
    12:00 +30°C° 0 mm 3 mps 676 mmHg 11%
    13:00 +33°C° 0 mm 4 mps 675 mmHg 9%
    14:00 +33°C° 0 mm 4 mps 675 mmHg 9%
    15:00 +33°C° 0 mm 4 mps 674 mmHg 9%
    16:00 +33°C° 0 mm 4 mps 674 mmHg 9%
    17:00 +28°C° 0 mm 3 mps 673 mmHg 12%
    18:00 +25°C° 0 mm 3 mps 673 mmHg 14%
    19:00 +21°C° 0 mm 3 mps 673 mmHg 17%
    20:00 +19°C° 0 mm 2 mps 673 mmHg 18%
    21:00 +18°C° 0 mm 2 mps 673 mmHg 19%
    22:00 +17°C° 0 mm 2 mps 673 mmHg 21%
    23:00 +16°C° 0 mm 2 mps 673 mmHg 22%

    Tomorrow, 22 July, Monday

    Time Temperature Precipitation Wind Pressure Humidity
    00:00 +15°C° 0 mm 2 mps 672 mmHg 24%
    01:00 +14°C° 0 mm 2 mps 672 mmHg 25%
    02:00 +13°C° 0 mm 2 mps 672 mmHg 26%
    03:00 +12°C° 0 mm 2 mps 672 mmHg 27%
    04:00 +10°C° 0 mm 2 mps 672 mmHg 28%
    05:00 +11°C° 0 mm 3 mps 673 mmHg 29%
    06:00 +12°C° 0 mm 3 mps 673 mmHg 30%
    07:00 +13°C° 0 mm 4 mps 674 mmHg 31%
    08:00 +17°C° 0 mm 5 mps 675 mmHg 28%
    09:00 +22°C° 0 mm 5 mps 675 mmHg 25%
    10:00 +26°C° 0 mm 5 mps 676 mmHg 22%
    11:00 +28°C° 0 mm 5 mps 676 mmHg 19%
    12:00 +30°C° 0 mm 4 mps 675 mmHg 15%
    13:00 +33°C° 0 mm 4 mps 674 mmHg 12%
    14:00 +33°C° 0 mm 4 mps 674 mmHg 12%
    15:00 +32°C° 0 mm 4 mps 673 mmHg 12%
    16:00 +32°C° 0 mm 4 mps 673 mmHg 12%
    17:00 +28°C° 0 mm 3 mps 673 mmHg 15%
    18:00 +24°C° 0 mm 3 mps 672 mmHg 19%
    19:00 +20°C° 0 mm 3 mps 672 mmHg 23%
    20:00 +19°C° 0 mm 3 mps 672 mmHg 25%
    21:00 +18°C° 0 mm 3 mps 673 mmHg 27%
    22:00 +17°C° 0 mm 3 mps 673 mmHg 30%
    23:00 +17°C° 0 mm 3 mps 672 mmHg 31%

    Day after tomorrow, 23 July, Tuesday

    Time Temperature Precipitation Wind Pressure Humidity
    00:00 +16°C° 0 mm 3 mps 672 mmHg 32%
    01:00 +16°C° 0 mm 3 mps 672 mmHg 33%
    02:00 +13°C° 0 mm 3 mps 672 mmHg 38%
    03:00 +12°C° 0 mm 3 mps 671 mmHg 43%
    04:00 +11°C° 0 mm 3 mps 671 mmHg 48%
    05:00 +11°C° 0 mm 3 mps 672 mmHg 49%
    06:00 +12°C° 0 mm 4 mps 673 mmHg 50%
    07:00 +12°C° 0 mm 4 mps 673 mmHg 51%
    08:00 +17°C° 0 mm 4 mps 674 mmHg 42%
    09:00 +21°C° 0 mm 4 mps 675 mmHg 33%
    10:00 +26°C° 0 mm 4 mps 676 mmHg 24%
    11:00 +28°C° 0 mm 3 mps 675 mmHg 20%
    12:00 +29°C° 0 mm 3 mps 675 mmHg 17%
    13:00 +31°C° 0 mm 2 mps 674 mmHg 13%
    14:00 +31°C° 0 mm 2 mps 674 mmHg 12%
    15:00 +31°C° 0 mm 2 mps 673 mmHg 11%
    16:00 +31°C° 0 mm 2 mps 673 mmHg 10%
    17:00 +28°C° 0 mm 2 mps 673 mmHg 13%
    18:00 +24°C° 0 mm 2 mps 672 mmHg 16%
    19:00 +20°C° 0 mm 2 mps 672 mmHg 19%
    20:00 +20°C° 0 mm 1 mps 672 mmHg 21%
    21:00 +19°C° 0 mm 1 mps 672 mmHg 22%
    22:00 +18°C° 0 mm 1 mps 672 mmHg 23%
    23:00 +16°C° 0 mm 1 mps 672 mmHg 24%

    24 July, Wednesday

    Time Temperature Precipitation Wind Pressure Humidity
    00:00 +15°C° 0 mm 2 mps 671 mmHg 25%
    01:00 +14°C° 0 mm 2 mps 671 mmHg 26%
    02:00 +13°C° 0 mm 2 mps 671 mmHg 28%
    03:00 +13°C° 0 mm 2 mps 671 mmHg 30%
    04:00 +12°C° 0 mm 2 mps 670 mmHg 32%
    05:00 +12°C° 0 mm 2 mps 671 mmHg 32%
    06:00 +13°C° 0 mm 2 mps 672 mmHg 31%
    07:00 +13°C° 0 mm 2 mps 672 mmHg 31%
    08:00 +18°C° 0 mm 2 mps 673 mmHg 25%
    09:00 +22°C° 0 mm 3 mps 674 mmHg 19%
    10:00 +27°C° 0 mm 3 mps 675 mmHg 14%
    11:00 +29°C° 0 mm 3 mps 674 mmHg 11%
    12:00 +31°C° 0 mm 3 mps 674 mmHg 9%
    13:00 +33°C° 0 mm 3 mps 673 mmHg 7%
    14:00 +33°C° 0 mm 3 mps 673 mmHg 7%
    15:00 +33°C° 0 mm 3 mps 673 mmHg 7%
    16:00 +33°C° 0 mm 3 mps 672 mmHg 7%
    17:00 +28°C° 0 mm 2 mps 672 mmHg 9%
    18:00 +25°C° 0 mm 2 mps 672 mmHg 12%
    19:00 +21°C° 0 mm 1 mps 672 mmHg 15%
    20:00 +20°C° 0 mm 1 mps 672 mmHg 15%
    21:00 +19°C° 0 mm 1 mps 672 mmHg 16%
    22:00 +17°C° 0 mm 2 mps 672 mmHg 17%
    23:00 +16°C° 0 mm 1 mps 672 mmHg 19%

    25 July, Thursday

    Time Temperature Precipitation Wind Pressure Humidity
    00:00 +15°C° 0 mm 1 mps 671 mmHg 20%
    01:00 +14°C° 0 mm 1 mps 671 mmHg 22%
    02:00 +13°C° 0 mm 1 mps 671 mmHg 24%
    03:00 +13°C° 0 mm 2 mps 671 mmHg 26%
    04:00 +12°C° 0 mm 2 mps 672 mmHg 27%
    05:00 +13°C° 0 mm 2 mps 672 mmHg 27%
    06:00 +13°C° 0 mm 2 mps 673 mmHg 27%
    07:00 +14°C° 0 mm 2 mps 673 mmHg 26%
    08:00 +18°C° 0 mm 2 mps 674 mmHg 21%
    09:00 +22°C° 0 mm 3 mps 675 mmHg 16%
    10:00 +28°C° 0 mm 3 mps 676 mmHg 11%
    11:00 +30°C° 0 mm 3 mps 675 mmHg 9%
    12:00 +31°C° 0 mm 3 mps 675 mmHg 8%
    13:00 +34°C° 0 mm 4 mps 674 mmHg 6%
    14:00 +34°C° 0 mm 3 mps 674 mmHg 6%
    15:00 +34°C° 0 mm 3 mps 674 mmHg 6%
    16:00 +33°C° 0 mm 3 mps 673 mmHg 6%
    17:00 +29°C° 0 mm 3 mps 673 mmHg 9%
    18:00 +25°C° 0 mm 2 mps 673 mmHg 11%
    19:00 +20°C° 0 mm 2 mps 672 mmHg 14%
    20:00 +19°C° 0 mm 2 mps 672 mmHg 15%
    21:00 +18°C° 0 mm 2 mps 672 mmHg 16%
    22:00 +17°C° 0 mm 2 mps 673 mmHg 18%
    23:00 +16°C° 0 mm 2 mps 672 mmHg 19%

    26 July, Friday

    Time Temperature Precipitation Wind Pressure Humidity
    00:00 +15°C° 0 mm 2 mps 672 mmHg 20%
    01:00 +14°C° 0 mm 2 mps 672 mmHg 21%
    02:00 +13°C° 0 mm 2 mps 672 mmHg 24%
    03:00 +12°C° 0 mm 2 mps 672 mmHg 26%
    04:00 +10°C° 0 mm 2 mps 672 mmHg 28%
    05:00 +12°C° 0 mm 2 mps 672 mmHg 28%
    06:00 +12°C° 0 mm 1 mps 673 mmHg 28%
    07:00 +13°C° 0 mm 1 mps 674 mmHg 27%
    08:00 +17°C° 0 mm 2 mps 675 mmHg 22%
    09:00 +22°C° 0 mm 3 mps 675 mmHg 16%
    10:00 +27°C° 0 mm 4 mps 676 mmHg 11%
    11:00 +29°C° 0 mm 4 mps 676 mmHg 10%
    12:00 +32°C° 0 mm 4 mps 675 mmHg 9%
    13:00 +34°C° 0 mm 5 mps 675 mmHg 8%
    14:00 +33°C° 0 mm 5 mps 674 mmHg 8%
    15:00 +33°C° 0 mm 4 mps 674 mmHg 8%
    16:00 +32°C° 0 mm 4 mps 673 mmHg 8%
    17:00 +28°C° 0 mm 4 mps 673 mmHg 11%
    18:00 +24°C° 0 mm 3 mps 673 mmHg 14%
    19:00 +20°C° 0 mm 2 mps 672 mmHg 16%
    20:00 +19°C° 0 mm 2 mps 672 mmHg 19%
    21:00 +18°C° 0 mm 2 mps 672 mmHg 21%
    22:00 +16°C° 0 mm 2 mps 672 mmHg 23%
    23:00 +16°C° 0 mm 2 mps 672 mmHg 25%
    Show more